Location: Ford County Road and Bridge Department
(37.7686°N, 99.9762°W)
Time: 15:40:02
(UTC+00:00)

Cosmos 1242 Rocket - Pass Details

Date: 18 January 2020
Orbit: 449 x 487 km, 81.2° (Epoch: 24 February)

Event Time Altitude Azimuth Distance (km) Brightness Sun altitude
Rises 00:22:34 0° 178° (S) 2,445 6.4 -7.4°
Reaches altitude 10° 00:24:38 10° 174° (S) 1,581 5.4 -7.7°
Maximum altitude 00:28:00 54° 96° (E) 559 2.5 -8.4°
Drops below altitude 10° 00:31:27 10° 18° (NNE) 1,611 4.9 -9.0°
Sets 00:33:34 0° 14° (NNE) 2,498 5.9 -9.4°
